| time (UTC) | temp F | wind direction | speed MPH | gust MPH | rain 1hr in | rain 24hr in | rain mn in | humidity % | barometer mb |
| 20260509083050 | 73 | 152 | 0.0 | 2.0 | 0.00 | 0.02 | 0.00 | 100 | 1010.5 |
| 20260509081536 | 73 | 152 | 0.0 | 2.0 | 0.00 | 0.02 | 0.00 | 100 | 1010.4 |
| 20260509080039 | 73 | 152 | 0.0 | 3.0 | 0.00 | 0.02 | 0.00 | 100 | 1010.1 |
| 20260509074538 | 73 | 152 | 2.0 | 7.0 | 0.00 | 0.02 | 0.00 | 100 | 1010.0 |
| 20260509073035 | 73 | 148 | 4.0 | 9.0 | 0.00 | 0.02 | 0.00 | 100 | 1009.9 |
| 20260509071541 | 73 | 148 | 6.0 | 10.0 | 0.00 | 0.02 | 0.00 | 100 | 1010.0 |
| 20260509070031 | 73 | 136 | 6.0 | 9.0 | 0.00 | 0.02 | 0.00 | 99 | 1010.5 |
| 20260509064528 | 73 | 136 | 5.0 | 7.0 | 0.00 | 0.02 | 0.00 | 99 | 1010.5 |
| 20260509063024 | 73 | 124 | 3.0 | 7.0 | 0.00 | 0.02 | 0.00 | 99 | 1010.7 |
| 20260509061523 | 73 | 126 | 3.0 | 7.0 | 0.00 | 0.02 | 0.00 | 99 | 1010.9 |
| 20260509060019 | 73 | 125 | 3.0 | 6.0 | 0.00 | 0.02 | 0.00 | 99 | 1010.9 |
| 20260509054519 | 73 | 124 | 2.0 | 4.0 | 0.00 | 0.02 | 0.00 | 99 | 1011.0 |
| 20260509053018 | 73 | 134 | 2.0 | 5.0 | 0.00 | 0.02 | 0.00 | 99 | 1011.0 |
| 20260509051516 | 73 | 125 | 4.0 | 8.0 | 0.00 | 0.02 | 0.00 | 99 | 1010.9 |
| 20260509050020 | 73 | 128 | 5.0 | 9.0 | 0.00 | 0.02 | 0.02 | 98 | 1011.1 |
| 20260509044518 | 73 | 132 | 5.0 | 10.0 | 0.00 | 0.02 | 0.02 | 98 | 1010.8 |
| 20260509043015 | 73 | 122 | 8.0 | 11.0 | 0.00 | 0.02 | 0.02 | 98 | 1010.7 |
| 20260509041513 | 73 | 131 | 5.0 | 9.0 | 0.00 | 0.02 | 0.02 | 98 | 1010.7 |
| 20260509040025 | 73 | 119 | 4.0 | 6.0 | 0.00 | 0.02 | 0.02 | 98 | 1010.7 |
| 20260509034512 | 72 | 95 | 3.0 | 7.0 | 0.00 | 0.02 | 0.02 | 97 | 1010.8 |
| 20260509033012 | 72 | 101 | 3.0 | 6.0 | 0.00 | 0.02 | 0.02 | 97 | 1010.7 |
| 20260509031512 | 72 | 95 | 3.0 | 6.0 | 0.00 | 0.02 | 0.02 | 97 | 1010.6 |
| 20260509030019 | 72 | 62 | 3.0 | 5.0 | 0.00 | 0.02 | 0.02 | 97 | 1010.3 |
| 20260509024514 | 72 | 82 | 2.0 | 4.0 | 0.00 | 0.02 | 0.02 | 97 | 1010.4 |
| 20260509023010 | 72 | 82 | 2.0 | 3.0 | 0.00 | 0.02 | 0.02 | 96 | 1010.2 |
| 20260509021509 | 72 | 55 | 1.0 | 4.0 | 0.00 | 0.02 | 0.02 | 96 | 1009.9 |
| 20260509020009 | 73 | 81 | 2.0 | 4.0 | 0.00 | 0.02 | 0.02 | 96 | 1009.7 |
| 20260509014508 | 73 | 81 | 2.0 | 5.0 | 0.00 | 0.02 | 0.02 | 96 | 1009.5 |
| 20260509013008 | 73 | 73 | 3.0 | 7.0 | 0.00 | 0.02 | 0.02 | 96 | 1009.6 |
| 20260509011508 | 73 | 117 | 4.0 | 7.0 | 0.00 | 0.02 | 0.02 | 96 | 1009.6 |
| 20260509010006 | 73 | 87 | 3.0 | 7.0 | 0.00 | 0.02 | 0.02 | 95 | 1009.6 |
| 20260509004507 | 73 | 128 | 4.0 | 7.0 | 0.00 | 0.02 | 0.02 | 95 | 1009.5 |
| 20260509003009 | 73 | 84 | 5.0 | 10.0 | 0.00 | 0.02 | 0.02 | 95 | 1009.5 |
| 20260509001509 | 73 | 100 | 5.0 | 8.0 | 0.00 | 0.02 | 0.02 | 95 | 1009.4 |
| 20260509000005 | 74 | 100 | 6.0 | 9.0 | 0.00 | 0.02 | 0.02 | 94 | 1009.4 |
| 20260508234505 | 74 | 104 | 5.0 | 11.0 | 0.00 | 0.02 | 0.02 | 94 | 1009.5 |
| 20260508233003 | 74 | 100 | 5.0 | 9.0 | 0.00 | 0.02 | 0.02 | 94 | 1009.3 |
| 20260508231503 | 74 | 107 | 6.0 | 9.0 | 0.00 | 0.02 | 0.02 | 94 | 1009.3 |
| 20260508230003 | 74 | 65 | 6.0 | 9.0 | 0.00 | 0.02 | 0.02 | 94 | 1009.3 |
| 20260508224647 | 74 | 94 | 6.0 | 9.0 | 0.00 | 0.02 | 0.02 | 94 | 1009.5 |
| 20260508223100 | 74 | 74 | 2.0 | 9.0 | 0.00 | 0.02 | 0.02 | 93 | 1009.7 |
| 20260508221559 | 74 | 98 | 6.0 | 9.0 | 0.00 | 0.02 | 0.02 | 93 | 1009.5 |
| 20260508220058 | 74 | 102 | 5.0 | 9.0 | 0.00 | 0.02 | 0.02 | 93 | 1009.7 |
| 20260508214556 | 74 | 115 | 5.0 | 10.0 | 0.00 | 0.02 | 0.02 | 94 | 1009.8 |
| 20260508213053 | 73 | 83 | 6.0 | 8.0 | 0.00 | 0.02 | 0.02 | 94 | 1009.8 |
| 20260508211552 | 73 | 121 | 5.0 | 8.0 | 0.00 | 0.02 | 0.02 | 94 | 1010.0 |
| 20260508210048 | 72 | 113 | 3.0 | 8.0 | 0.00 | 0.02 | 0.02 | 94 | 1010.4 |
| 20260508204544 | 72 | 73 | 4.0 | 8.0 | 0.00 | 0.02 | 0.02 | 94 | 1010.8 |
| 20260508203043 | 72 | 107 | 4.0 | 9.0 | 0.00 | 0.02 | 0.02 | 95 | 1010.8 |
| 20260508201537 | 71 | 90 | 5.0 | 10.0 | 0.00 | 0.02 | 0.02 | 95 | 1010.9 |
| 20260508200037 | 71 | 107 | 7.0 | 11.0 | 0.00 | 0.02 | 0.02 | 95 | 1011.2 |
| 20260508194540 | 70 | 97 | 5.0 | 9.0 | 0.00 | 0.02 | 0.02 | 95 | 1011.1 |
| 20260508193033 | 70 | 80 | 4.0 | 8.0 | 0.00 | 0.02 | 0.02 | 96 | 1011.3 |
| 20260508191536 | 69 | 86 | 4.0 | 9.0 | 0.00 | 0.02 | 0.02 | 96 | 1011.9 |
| 20260508190028 | 69 | 59 | 5.0 | 10.0 | 0.00 | 0.02 | 0.02 | 96 | 1011.9 |
| 20260508184528 | 69 | 77 | 3.0 | 7.0 | 0.00 | 0.02 | 0.02 | 95 | 1012.3 |
| 20260508183032 | 69 | 44 | 3.0 | 10.0 | 0.01 | 0.02 | 0.02 | 95 | 1012.2 |
| 20260508181525 | 69 | 55 | 4.0 | 9.0 | 0.01 | 0.02 | 0.02 | 96 | 1012.0 |
| 20260508180026 | 68 | 57 | 4.0 | 9.0 | 0.01 | 0.02 | 0.02 | 96 | 1012.1 |
| 20260508174522 | 68 | 74 | 4.0 | 9.0 | 0.01 | 0.02 | 0.02 | 96 | 1012.2 |
| 20260508173020 | 68 | 85 | 6.0 | 9.0 | 0.01 | 0.01 | 0.01 | 96 | 1012.4 |
| 20260508171518 | 68 | 90 | 3.0 | 6.0 | 0.01 | 0.01 | 0.01 | 96 | 1012.8 |
| 20260508170019 | 68 | 80 | 4.0 | 9.0 | 0.01 | 0.01 | 0.01 | 96 | 1013.0 |
| 20260508164516 | 68 | 51 | 3.0 | 6.0 | 0.01 | 0.01 | 0.01 | 95 | 1013.2 |
| 20260508163027 | 67 | 53 | 4.0 | 8.0 | 0.00 | 0.00 | 0.00 | 94 | 1013.5 |
| 20260508161514 | 68 | 50 | 3.0 | 6.0 | 0.00 | 0.00 | 0.00 | 94 | 1013.9 |
| 20260508160020 | 68 | 67 | 3.0 | 10.0 | 0.00 | 0.00 | 0.00 | 93 | 1013.7 |
| 20260508154516 | 67 | 52 | 4.0 | 8.0 | 0.00 | 0.00 | 0.00 | 93 | 1013.2 |
| 20260508153011 | 67 | 79 | 4.0 | 10.0 | 0.00 | 0.00 | 0.00 | 93 | 1013.0 |
| 20260508151512 | 67 | 10 | 2.0 | 8.0 | 0.00 | 0.00 | 0.00 | 94 | 1013.4 |
| 20260508150030 | 66 | 68 | 3.0 | 8.0 | 0.00 | 0.00 | 0.00 | 94 | 1013.2 |
| 20260508144510 | 66 | 312 | 2.0 | 6.0 | 0.00 | 0.00 | 0.00 | 94 | 1013.6 |
| 20260508143011 | 66 | 53 | 1.0 | 5.0 | 0.00 | 0.00 | 0.00 | 94 | 1013.5 |
| 20260508141508 | 66 | 80 | 0.0 | 6.0 | 0.00 | 0.00 | 0.00 | 94 | 1013.6 |
| 20260508140013 | 66 | 82 | 3.0 | 6.0 | 0.00 | 0.00 | 0.00 | 93 | 1013.6 |
| 20260508134507 | 66 | 82 | 2.0 | 4.0 | 0.00 | 0.00 | 0.00 | 93 | 1013.8 |
| 20260508133009 | 66 | 23 | 1.0 | 6.0 | 0.00 | 0.00 | 0.00 | 92 | 1013.9 |
| 20260508131506 | 66 | 88 | 3.0 | 7.0 | 0.00 | 0.00 | 0.00 | 92 | 1013.5 |
| 20260508130005 | 66 | 5 | 3.0 | 8.0 | 0.00 | 0.00 | 0.00 | 91 | 1013.7 |
| 20260508124506 | 66 | 19 | 2.0 | 9.0 | 0.00 | 0.00 | 0.00 | 91 | 1013.7 |
| 20260508123004 | 66 | 51 | 1.0 | 4.0 | 0.00 | 0.00 | 0.00 | 91 | 1013.6 |
| 20260508121503 | 66 | 91 | 2.0 | 6.0 | 0.00 | 0.00 | 0.00 | 90 | 1013.3 |
| 20260508120003 | 66 | 57 | 3.0 | 5.0 | 0.00 | 0.00 | 0.00 | 89 | 1013.7 |
| 20260508114503 | 66 | 26 | 3.0 | 5.0 | 0.00 | 0.00 | 0.00 | 89 | 1014.0 |
| 20260508113004 | 66 | 302 | 2.0 | 6.0 | 0.00 | 0.00 | 0.00 | 89 | 1014.1 |
| 20260508111503 | 66 | 332 | 2.0 | 8.0 | 0.00 | 0.00 | 0.00 | 89 | 1014.0 |
| 20260508110111 | 66 | 14 | 1.0 | 8.0 | 0.00 | 0.00 | 0.00 | 89 | 1013.9 |
| 20260508104613 | 66 | 330 | 1.0 | 7.0 | 0.00 | 0.00 | 0.00 | 89 | 1013.8 |
| 20260508103103 | 65 | 71 | 2.0 | 5.0 | 0.00 | 0.00 | 0.00 | 88 | 1013.5 |
| 20260508101558 | 65 | 306 | 1.0 | 5.0 | 0.00 | 0.00 | 0.00 | 88 | 1013.9 |
| 20260508100058 | 65 | 42 | 3.0 | 8.0 | 0.00 | 0.00 | 0.00 | 88 | 1013.4 |
| 20260508094556 | 65 | 84 | 3.0 | 6.0 | 0.00 | 0.00 | 0.00 | 87 | 1013.4 |
| 20260508093056 | 65 | 18 | 4.0 | 11.0 | 0.00 | 0.00 | 0.00 | 86 | 1013.7 |
| 20260508091608 | 66 | 5 | 2.0 | 8.0 | 0.00 | 0.00 | 0.00 | 86 | 1013.9 |
| 20260508090055 | 66 | 39 | 1.0 | 4.0 | 0.00 | 0.00 | 0.00 | 86 | 1013.1 |
| 20260508084602 | 66 | 15 | 2.0 | 6.0 | 0.00 | 0.00 | 0.00 | 86 | 1013.1 |